RFR1Y EGCC-EGPH

Flight info

Callsign RFR1Y
Flight time 0h 37m
Altitude 24000
Route POL N601 INPIP
Aircraft A332/H-SDE3GHIJ2J3J5M1RVWXY/LB2D1

Departure

Time 2026-04-22 15:28
Airport Manchester Airport (EGCC)

Arrival

Time 2026-04-22 16:05
Airport Edinburgh Airport (EGPH)
Time Latitude Longitude Altitude Speed Heading
2026-04-22 15:10 53.36809 -2.28688 251 ft 0 kts 315°
2026-04-22 15:16 53.36804 -2.28681 251 ft 3 kts 299°
2026-04-22 15:16 53.36801 -2.28674 251 ft 2 kts 281°
2026-04-22 15:17 53.36798 -2.28653 251 ft 2 kts 282°
2026-04-22 15:17 53.36795 -2.28627 251 ft 2 kts 282°
2026-04-22 15:17 53.36791 -2.28600 251 ft 2 kts 282°
2026-04-22 15:17 53.36789 -2.28580 251 ft 2 kts 280°
2026-04-22 15:18 53.36787 -2.28563 251 ft 1 kts 250°
2026-04-22 15:18 53.36780 -2.28579 251 ft 1 kts 229°
2026-04-22 15:18 53.36780 -2.28580 251 ft 0 kts 229°
2026-04-22 15:19 53.36775 -2.28590 251 ft 3 kts 229°
2026-04-22 15:20 53.36748 -2.28634 251 ft 7 kts 224°
2026-04-22 15:20 53.36702 -2.28713 251 ft 12 kts 224°
2026-04-22 15:20 53.36624 -2.28783 251 ft 14 kts 193°
2026-04-22 15:20 53.36548 -2.28705 251 ft 15 kts 135°
2026-04-22 15:21 53.36466 -2.28568 251 ft 18 kts 134°
2026-04-22 15:21 53.36352 -2.28467 251 ft 17 kts 155°
2026-04-22 15:21 53.36259 -2.28325 251 ft 19 kts 135°
2026-04-22 15:21 53.36156 -2.28151 251 ft 23 kts 135°
2026-04-22 15:22 53.36040 -2.27956 251 ft 25 kts 135°
2026-04-22 15:22 53.35897 -2.27848 251 ft 23 kts 184°
2026-04-22 15:22 53.35732 -2.27878 251 ft 25 kts 186°
2026-04-22 15:22 53.35588 -2.27977 247 ft 23 kts 229°
2026-04-22 15:23 53.35454 -2.28146 242 ft 25 kts 196°
2026-04-22 15:23 53.35285 -2.28234 238 ft 27 kts 211°
2026-04-22 15:23 53.35149 -2.28468 238 ft 30 kts 231°
2026-04-22 15:23 53.35019 -2.28735 240 ft 30 kts 229°
2026-04-22 15:24 53.34875 -2.28986 227 ft 30 kts 225°
2026-04-22 15:24 53.34803 -2.29071 227 ft 0 kts 183°
2026-04-22 15:26 53.34787 -2.29072 221 ft 5 kts 182°
2026-04-22 15:26 53.34734 -2.29056 228 ft 11 kts 159°
2026-04-22 15:26 53.34681 -2.28958 228 ft 11 kts 85°
2026-04-22 15:27 53.34727 -2.28838 229 ft 23 kts 51°
2026-04-22 15:27 53.34978 -2.28318 240 ft 93 kts 51°
2026-04-22 15:27 53.35524 -2.27192 265 ft 154 kts 51°
2026-04-22 15:27 53.36301 -2.25586 497 ft 199 kts 50°
2026-04-22 15:28 53.37279 -2.23606 894 ft 241 kts 50°
2026-04-22 15:28 53.38365 -2.21329 1805 ft 252 kts 52°
2026-04-22 15:28 53.39448 -2.18955 2731 ft 259 kts 52°
2026-04-22 15:28 53.40549 -2.16545 3658 ft 261 kts 52°
2026-04-22 15:29 53.41663 -2.14122 4303 ft 264 kts 52°
2026-04-22 15:29 53.42781 -2.11712 4876 ft 266 kts 50°
2026-04-22 15:29 53.44134 -2.09594 5478 ft 268 kts 31°
2026-04-22 15:30 53.47783 -2.08667 6688 ft 272 kts 354°
2026-04-22 15:30 53.49644 -2.09026 7288 ft 274 kts 352°
2026-04-22 15:30 53.51543 -2.09472 7879 ft 277 kts 348°
2026-04-22 15:30 53.53432 -2.10175 8487 ft 279 kts 346°
2026-04-22 15:31 53.55324 -2.10945 9078 ft 282 kts 345°
2026-04-22 15:31 53.57234 -2.11774 9687 ft 284 kts 345°
2026-04-22 15:31 53.59156 -2.12640 10286 ft 291 kts 344°
2026-04-22 15:31 53.61188 -2.13572 10725 ft 315 kts 344°
2026-04-22 15:32 53.63360 -2.14572 11311 ft 330 kts 344°
2026-04-22 15:32 53.65597 -2.15600 12136 ft 337 kts 344°
2026-04-22 15:32 53.67875 -2.16644 13000 ft 342 kts 344°
2026-04-22 15:32 53.70186 -2.17700 13852 ft 346 kts 344°
2026-04-22 15:33 53.72529 -2.18770 14680 ft 351 kts 344°
2026-04-22 15:33 53.74903 -2.19855 15496 ft 356 kts 345°
2026-04-22 15:33 53.77305 -2.20954 16297 ft 360 kts 345°
2026-04-22 15:33 53.79730 -2.22064 17082 ft 364 kts 345°
2026-04-22 15:34 53.82186 -2.23190 17838 ft 368 kts 344°
2026-04-22 15:34 53.84664 -2.24328 18573 ft 372 kts 344°
2026-04-22 15:34 53.87184 -2.25487 19273 ft 376 kts 344°
2026-04-22 15:34 53.89723 -2.26655 19948 ft 381 kts 344°
2026-04-22 15:35 53.92291 -2.27838 20613 ft 384 kts 344°
2026-04-22 15:35 53.94881 -2.29034 21263 ft 388 kts 344°
2026-04-22 15:35 53.97500 -2.30245 21887 ft 392 kts 344°
2026-04-22 15:35 54.00142 -2.31467 22475 ft 396 kts 344°
2026-04-22 15:36 54.02810 -2.32704 23069 ft 399 kts 344°
2026-04-22 15:36 54.05501 -2.33953 23622 ft 403 kts 344°
2026-04-22 15:36 54.08215 -2.35214 23938 ft 405 kts 344°
2026-04-22 15:36 54.10910 -2.36468 24003 ft 398 kts 344°
2026-04-22 15:37 54.13563 -2.37703 24003 ft 394 kts 344°
2026-04-22 15:37 54.16167 -2.39176 24000 ft 394 kts 339°
2026-04-22 15:37 54.18736 -2.40828 24000 ft 395 kts 338°
2026-04-22 15:37 54.21294 -2.42552 24000 ft 395 kts 338°
2026-04-22 15:38 54.23845 -2.44319 24000 ft 395 kts 337°
2026-04-22 15:38 54.28932 -2.47895 24001 ft 395 kts 337°
2026-04-22 15:38 54.31471 -2.49684 24000 ft 394 kts 337°
2026-04-22 15:39 54.34009 -2.51470 24000 ft 394 kts 337°
2026-04-22 15:39 54.36546 -2.53253 24000 ft 395 kts 337°
2026-04-22 15:39 54.39090 -2.55040 24000 ft 395 kts 337°
2026-04-22 15:39 54.41634 -2.56827 24000 ft 395 kts 337°
2026-04-22 15:40 54.44180 -2.58618 24000 ft 395 kts 337°
2026-04-22 15:40 54.46720 -2.60406 24000 ft 394 kts 337°
2026-04-22 15:40 54.49226 -2.62173 24000 ft 394 kts 337°
2026-04-22 15:40 54.51766 -2.63967 24000 ft 395 kts 337°
2026-04-22 15:41 54.54306 -2.65765 24000 ft 395 kts 337°
2026-04-22 15:41 54.56843 -2.67564 24000 ft 395 kts 337°
2026-04-22 15:41 54.59382 -2.69366 24000 ft 394 kts 337°
2026-04-22 15:41 54.61919 -2.71170 24000 ft 394 kts 337°
2026-04-22 15:42 54.64450 -2.72972 24000 ft 394 kts 337°
2026-04-22 15:42 54.66986 -2.74780 24000 ft 394 kts 337°
2026-04-22 15:42 54.69519 -2.76587 24000 ft 394 kts 337°
2026-04-22 15:42 54.72053 -2.78398 24000 ft 394 kts 337°
2026-04-22 15:43 54.74583 -2.80210 24000 ft 394 kts 337°
2026-04-22 15:43 54.77116 -2.82025 24000 ft 394 kts 337°
2026-04-22 15:43 54.79644 -2.83840 24000 ft 394 kts 337°
2026-04-22 15:43 54.82174 -2.85657 24000 ft 394 kts 337°
2026-04-22 15:44 54.84702 -2.87477 24000 ft 393 kts 337°
2026-04-22 15:44 54.87234 -2.89301 23986 ft 395 kts 337°
2026-04-22 15:44 54.89774 -2.91133 23757 ft 395 kts 337°
2026-04-22 15:44 54.92312 -2.92967 23500 ft 395 kts 337°
2026-04-22 15:45 54.94842 -2.94797 23248 ft 393 kts 337°
2026-04-22 15:45 54.97362 -2.96623 23001 ft 392 kts 337°
2026-04-22 15:45 54.99869 -2.98441 22748 ft 390 kts 337°
2026-04-22 15:45 55.02372 -3.00260 22503 ft 389 kts 337°
2026-04-22 15:46 55.04812 -3.02035 22163 ft 382 kts 337°
2026-04-22 15:46 55.07257 -3.03816 21660 ft 380 kts 337°
2026-04-22 15:46 55.09693 -3.05592 21119 ft 379 kts 337°
2026-04-22 15:46 55.12118 -3.07363 20597 ft 377 kts 337°
2026-04-22 15:47 55.14527 -3.09125 20153 ft 374 kts 337°
2026-04-22 15:47 55.16929 -3.10883 19594 ft 375 kts 337°
2026-04-22 15:47 55.19352 -3.12660 18852 ft 379 kts 337°
2026-04-22 15:47 55.21781 -3.14443 18223 ft 378 kts 337°
2026-04-22 15:48 55.24199 -3.16222 17607 ft 376 kts 337°
2026-04-22 15:48 55.26595 -3.17985 17171 ft 370 kts 337°
2026-04-22 15:48 55.28956 -3.19614 16809 ft 361 kts 343°
2026-04-22 15:48 55.31404 -3.20144 16580 ft 350 kts
2026-04-22 15:49 55.33790 -3.19893 16412 ft 338 kts
2026-04-22 15:49 55.36091 -3.19522 16251 ft 326 kts
2026-04-22 15:49 55.38329 -3.19149 15897 ft 322 kts
2026-04-22 15:49 55.40558 -3.18784 15442 ft 321 kts
2026-04-22 15:50 55.42773 -3.18428 15071 ft 318 kts
2026-04-22 15:50 55.44973 -3.18078 14611 ft 317 kts
2026-04-22 15:50 55.47162 -3.17732 14204 ft 315 kts
2026-04-22 15:50 55.49336 -3.17390 13798 ft 312 kts
2026-04-22 15:51 55.51492 -3.17051 13374 ft 310 kts
2026-04-22 15:51 55.53640 -3.16712 12928 ft 309 kts
2026-04-22 15:51 55.55776 -3.16376 12515 ft 307 kts
2026-04-22 15:51 55.57892 -3.16042 12066 ft 304 kts
2026-04-22 15:52 55.59989 -3.15711 11453 ft 301 kts
2026-04-22 15:52 55.62066 -3.15384 10800 ft 298 kts
2026-04-22 15:52 55.64119 -3.15059 10095 ft 294 kts
2026-04-22 15:52 55.66150 -3.14739 9394 ft 291 kts
2026-04-22 15:53 55.68145 -3.14424 8772 ft 284 kts
2026-04-22 15:53 55.70080 -3.14607 8240 ft 274 kts 343°
2026-04-22 15:53 55.71672 -3.16242 7813 ft 263 kts 313°
2026-04-22 15:53 55.72575 -3.19010 7415 ft 261 kts 289°
2026-04-22 15:54 55.73102 -3.22070 7099 ft 259 kts 285°
2026-04-22 15:54 55.73568 -3.25146 6757 ft 258 kts 285°
2026-04-22 15:54 55.74031 -3.28211 6413 ft 257 kts 285°
2026-04-22 15:54 55.74497 -3.31257 6087 ft 255 kts 285°
2026-04-22 15:55 55.74967 -3.34294 5731 ft 255 kts 285°
2026-04-22 15:55 55.75437 -3.37306 5453 ft 252 kts 285°
2026-04-22 15:55 55.75899 -3.40267 5269 ft 247 kts 285°
2026-04-22 15:55 55.76358 -3.43204 5098 ft 247 kts 285°
2026-04-22 15:56 55.76816 -3.46140 4932 ft 247 kts 285°
2026-04-22 15:56 55.77273 -3.49069 4772 ft 245 kts 285°
2026-04-22 15:56 55.77726 -3.51980 4591 ft 244 kts 285°
2026-04-22 15:56 55.78177 -3.54877 4150 ft 244 kts 285°
2026-04-22 15:57 55.78620 -3.57732 3775 ft 242 kts 285°
2026-04-22 15:57 55.79067 -3.60615 3561 ft 242 kts 285°
2026-04-22 15:57 55.79511 -3.63485 3483 ft 236 kts 285°
2026-04-22 15:57 55.79920 -3.66139 3489 ft 209 kts 285°
2026-04-22 15:58 55.80282 -3.68470 3486 ft 184 kts 286°
2026-04-22 15:58 55.80791 -3.70386 3505 ft 162 kts 308°
2026-04-22 15:58 55.81660 -3.71494 3483 ft 150 kts 341°
2026-04-22 15:58 55.82625 -3.71498 3502 ft 136 kts 23°
2026-04-22 15:59 55.83407 -3.70600 3506 ft 134 kts 41°
2026-04-22 15:59 55.84035 -3.69372 3486 ft 135 kts 52°
2026-04-22 15:59 55.84559 -3.67984 3483 ft 135 kts 57°
2026-04-22 15:59 55.85048 -3.66552 3484 ft 135 kts 58°
2026-04-22 16:00 55.85532 -3.65119 3481 ft 136 kts 58°
2026-04-22 16:00 55.86028 -3.63682 3373 ft 136 kts 58°
2026-04-22 16:00 55.86521 -3.62251 3179 ft 135 kts 58°
2026-04-22 16:00 55.87008 -3.60818 2985 ft 135 kts 58°
2026-04-22 16:01 55.87491 -3.59394 2792 ft 134 kts 58°
2026-04-22 16:01 55.87973 -3.57973 2612 ft 134 kts 58°
2026-04-22 16:01 55.88452 -3.56564 2433 ft 133 kts 58°
2026-04-22 16:01 55.88932 -3.55152 2263 ft 133 kts 58°
2026-04-22 16:02 55.89409 -3.53745 2083 ft 133 kts 58°
2026-04-22 16:02 55.89885 -3.52341 1894 ft 132 kts 58°
2026-04-22 16:02 55.90361 -3.50940 1727 ft 132 kts 58°
2026-04-22 16:02 55.90834 -3.49543 1558 ft 132 kts 58°
2026-04-22 16:03 55.91307 -3.48149 1378 ft 131 kts 58°
2026-04-22 16:03 55.91778 -3.46761 1210 ft 131 kts 58°
2026-04-22 16:03 55.92248 -3.45374 1035 ft 130 kts 58°
2026-04-22 16:03 55.92715 -3.43995 846 ft 130 kts 58°
2026-04-22 16:04 55.93181 -3.42618 687 ft 129 kts 58°
2026-04-22 16:04 55.93647 -3.41246 479 ft 129 kts 58°
2026-04-22 16:04 55.93956 -3.40345 330 ft 128 kts 58°
2026-04-22 16:04 55.94419 -3.38986 167 ft 128 kts 59°
2026-04-22 16:05 55.94842 -3.37713 114 ft 91 kts 58°
2026-04-22 16:05 55.95141 -3.36828 110 ft 70 kts 59°
2026-04-22 16:05 55.95285 -3.36385 106 ft 31 kts 59°
2026-04-22 16:05 55.95402 -3.36048 105 ft 32 kts 58°
2026-04-22 16:06 55.95518 -3.35714 107 ft 31 kts 59°
2026-04-22 16:06 55.95520 -3.35470 105 ft 17 kts 136°
2026-04-22 16:06 55.95433 -3.35430 107 ft 10 kts 210°
2026-04-22 16:06 55.95385 -3.35539 109 ft 12 kts 241°
2026-04-22 16:07 55.95327 -3.35709 106 ft 20 kts 238°
2026-04-22 16:07 55.95248 -3.35939 105 ft 22 kts 237°
2026-04-22 16:07 55.95188 -3.35988 107 ft 5 kts 161°
2026-04-22 16:07 55.95147 -3.35923 109 ft 13 kts 134°
2026-04-22 16:08 55.95063 -3.35799 109 ft 14 kts 170°
2026-04-22 16:08 55.94969 -3.35861 111 ft 14 kts 192°
2026-04-22 16:08 55.94896 -3.35927 111 ft 9 kts 251°
2026-04-22 16:08 55.94891 -3.35971 109 ft 0 kts 258°